Location: Hains Lake
(37.8540°N, 99.8578°W)
Time: 04:42:19
(UTC+00:00)

Tiros 1 despin weight - Pass Details

Date: 25 April 2021
Orbit: 593 x 642 km, 48.2° (Epoch: 07 May)

Event Time Altitude Azimuth Distance (km) Brightness Sun altitude
Rises 14:55:45 0° 305° (NW) 2,889 ? 35.3°
Reaches altitude 10° 14:58:07 10° 310° (NW) 1,973 ? 35.8°
Maximum altitude 15:02:33 53° 28° (NNE) 749 ? 36.6°
Drops below altitude 10° 15:06:54 10° 105° (ESE) 1,937 ? 37.5°
Sets 15:09:13 0° 110° (ESE) 2,831 ? 37.9°
